Location: Oberkirch
(48.5323°N, 8.0787°E)
Time: 11:05:27
(UTC+00:00)

SL-24 R/B - RUBIN 2 - Pass Details

Date: 13 February 2026
Orbit: 603 x 984 km, 64.6° (Epoch: 8 March)

Event Time Altitude Azimuth Distance (km) Brightness Sun altitude
Exits shadow 03:49:53 26° 9° (N) 1,287 5.3 -28.4°
Drops below altitude 10° 03:52:06 10° 28° (NNE) 2,016 6.6 -28.0°
Sets 03:54:26 0° 37° (NE) 2,897 7.7 -27.7°
